JH1LWU-13 Weather Reports


time (UTC)temp
C
wind
direction
speed
KPH
gust
KPH
rain 1hr
cm
rain 24hr
cm
rain mn
cm
humidity
%
barometer
mb
20260502220246 17 225 4.8 4.8 0.00 0.00 0.00 59 1008.0
20260502213245 17 224 0.0 0.0 0.00 0.00 0.00 59 1010.0
20260502210244 16 226 0.0 0.0 0.00 0.00 0.00 59 1010.0
20260502203243 15 336 0.0 0.0 0.00 0.00 0.00 61 1008.0
20260502200242 15 335 0.0 0.0 0.00 0.00 0.00 59 1008.0
20260502193241 15 354 0.0 0.0 0.00 0.00 0.00 55 1007.0
20260502190240 16 354 0.0 0.0 0.00 0.00 0.00 52 1008.0
20260502183239 16 6 0.0 0.0 0.00 0.00 0.00 51 1008.0
20260502180238 16 6 0.0 0.0 0.00 0.00 0.00 47 1009.0
20260502170236 16 6 0.0 0.0 0.00 0.00 0.00 46 1007.0
20260502163235 16 6 0.0 0.0 0.00 0.00 0.00 44 1007.0
20260502160234 16 3 0.0 0.0 0.00 0.00 0.00 43 1007.0
20260502150232 17 6 0.0 0.0 0.00 0.00 0.00 37 1007.0
20260502130228 19 6 0.0 0.0 0.00 0.00 0.00 37 1008.0
20260502123227 20 6 0.0 0.0 0.00 0.00 0.00 34 1008.0
20260502120226 20 6 0.0 0.0 0.00 0.00 0.00 31 1007.0
20260502113225 21 7 0.0 0.0 0.00 0.00 0.00 28 1006.0
20260502110224 21 6 0.0 0.0 0.00 0.00 0.00 26 1005.0
20260502103223 22 6 0.0 0.0 0.00 0.00 0.00 26 1006.0
20260502100222 22 6 0.0 0.0 0.00 0.00 0.00 25 1005.0
20260502090220 22 10 0.0 0.0 0.00 0.00 0.00 25 1005.0
20260502070216 25 63 0.0 0.0 0.00 0.00 0.00 28 1003.0
20260502063215 26 105 0.0 4.8 0.00 0.00 0.00 21 1004.0
20260502060214 26 153 4.8 6.4 0.00 0.00 0.00 22 1005.0
20260502053213 26 86 0.0 3.2 0.00 0.00 0.00 22 1001.0
20260502050212 26 139 0.0 4.8 0.00 0.00 0.00 22 1001.0
20260502043211 26 224 1.6 4.8 0.00 0.00 0.00 22 1003.0
20260502040210 26 325 0.0 4.8 0.00 0.00 0.00 23 1003.0
20260502033209 27 359 0.0 3.2 0.00 0.00 0.00 22 1003.0
20260502030208 26 11 0.0 3.2 0.00 0.00 0.00 24 1002.0
20260502023207 26 215 4.8 8.0 0.00 0.00 0.00 24 1000.0
20260502020206 25 298 1.6 4.8 0.00 0.00 0.00 24 1001.0
20260502013205 26 125 0.0 1.6 0.00 0.00 0.00 30 1000.0
20260502010204 23 207 6.4 6.4 0.00 0.00 0.00 36 1000.0
20260502003203 22 10 3.2 4.8 0.00 0.00 0.00 35 1001.0
20260502000203 23 322 0.0 3.2 0.00 0.00 0.00 28 1000.0
20260501233201 22 30 0.0 3.2 0.00 0.00 0.00 32 1000.0
20260501230200 21 24 0.0 1.6 0.00 0.00 0.00 34 999.0
20260501223159 19 56 0.0 0.0 0.00 0.00 0.00 37 998.0